Regional Weather Roundup
Issued by NWS Portland, ME

Home | Current Version | Previous Version | Text Only | Print | Product List | Glossary On
Versions: 1 2 3 4 5 6 7 8 9 10 11 12 13 14 15 16 17 18 19 20 21 22 23 24 25 26 27 28 29 30 31 32 33 34 35 36 37 38 39 40 41 42 43 44 45 46 47 48 49 50
000
ASUS41 KGYX 101310
RWRGYX
WEATHER ROUNDUP FOR MAINE AND NEW HAMPSHIRE
NATIONAL WEATHER SERVICE GRAY ME
800 AM EST WED FEB 10 2016

MEZ002-005-006-010-012-015-018-020-021-024-026-027-029-101400-
MAINE

CITY           SKY/WX    TMP DP  RH WIND       PRES   REMARKS
PORTLAND       CLOUDY    22  18  85 CALM      29.62R
SANFORD        CLOUDY    23  14  68 SW3       29.61S
BAR HARBOR     SUNNY     18  18 100 CALM      29.63S
WISCASSET      CLOUDY    13  10  88 CALM      29.63S
ROCKLAND       SUNNY     10   6  84 CALM      29.63R
FRYEBURG       MOSUNNY   11   7  84 CALM      29.59S
LEWISTONAUBURN CLOUDY    10   7  85 CALM      29.59R
AUGUSTA        CLOUDY    11   8  88 CALM      29.60S FOG
WATERVILLE     CLOUDY     9   7  92 CALM      29.57S
BANGOR         MOSUNNY    2   2 100 CALM      29.61R
GREENVILLE       N/A     11   8  88 CALM      29.46R
MILLINOCKET    SUNNY      6   2  83 CALM      29.58R
HOULTON        SUNNY      0  -4  83 CALM      29.54R
PRESQUE ISLE   FLURRIES   5   2  87 CALM      29.55R
FRENCHVILLE    LGT SNOW   7   4  87 SW5       29.48S FOG
CARIBOU        CLOUDY     5   3  91 CALM      29.52R FOG
$$

NHZ002-005-008-009-011-012-014-101400-
NEW HAMPSHIRE

CITY           SKY/WX    TMP DP  RH WIND       PRES   REMARKS
PORTSMOUTH     CLOUDY    22  16  78 W2        29.61R
ROCHESTER      CLOUDY    20  15  81 CALM      29.60R
NASHUA         CLOUDY    19  19 100 CALM      29.61S
MANCHESTER     LGT SNOW  20  17  88 CALM      29.59R FOG
CONCORD        CLOUDY    20  16  84 CALM      29.60R
LACONIA        CLOUDY    21  18  86 CALM      29.59R
PLYMOUTH       LGT SNOW  21  20  95 CALM      29.58R
BERLIN         CLOUDY    16  12  84 CALM      29.51R
WHITEFIELD     LGT SNOW  21  17  84 CALM      29.51R FOG
JAFFREY        LGT SNOW  19  17  92 CALM      29.55S FOG
KEENE          CLOUDY    19  12  73 CALM      29.58S
LEBANON        LGT SNOW  24  20  84 CALM      29.55R VSB 1
MT WASHINGTON  FOG        9   9 100 W36         N/A  VSB 0   WCI -16
$$

VTZ005-007-008-101400-
VERMONT

CITY           SKY/WX    TMP DP  RH WIND       PRES   REMARKS
ST JOHNSBURY     N/A     23  18  81 MISG      29.52R
MONTPELIER     LGT SNOW  20  18  92 CALM      29.53R FOG
BURLINGTON     CLOUDY    28  22  78 SW7       29.53R
$$

MAZ007-012-024-CTZ003-RIZ002-NYZ038-NYZ072-101400-
SOUTHERN NEW ENGLAND AND NY

CITY           SKY/WX    TMP DP  RH WIND       PRES   REMARKS
BOSTON         FLURRIES  27  21  78 S8        29.63R
WORCESTER      LGT SNOW  23  21  92 SW8       29.55S VSB 1
NANTUCKET      CLOUDY    31  26  82 NE3       29.62S
PROVIDENCE     LGT SNOW  26  23  88 CALM      29.62S FOG
HARTFORD       LGT SNOW  27  25  92 CALM      29.59S VSB 3/4
ALBANY         LGT SNOW  29  26  89 S5        29.57S FOG
NEW YORK CITY  LGT SNOW  36  28  75 W7        29.61R
$$

ANZ081-ANZ082-ANZ150-NHZ014-MEZ023>029-101400-
COASTAL MARINE OBSERVATIONS

STATION/POSITION TIME  TEMP    WIND        PRES    WAVE
                       AIR SEA DIR/SP/G            HT/PER
                 (UTC) (F)     (DEG/KT/KT) (MB)    (FT/S)
MOUNT DESERT ROC 1300   28     270/  6/  7 1003.3R
MATINICUS ROCK   1200           CALM  /  1 1002.9R
ISLE OF SHOALS   1200   30     220/ 13/ 15 1002.1R
JEFFREYS LEDGE   1204      44                N/A     5/12
CASHES LEDGE BUO 1250   31 43  190/  6/ 10 1003.0R   4/12
GEORGES BANK BUO 1150   39 46              1002.2    9/11
$$

.............KEY..............
   WCI - WIND CHILL
   TC  - TEMPERATURE IN CELSIUS
   VSB - VISIBILITY IN MILES
   HX  - HEAT INDEX
   FAIR- INDICATES FEW OR NO CLOUDS BELOW 12,000 FT, WITH NO
         SIGNIFICANT WEATHER AND/OR OBSTRUCTIONS TO VISIBILITY.





USA.gov is the U.S. government's official web portal to all federal, state and local government web resources and services.